Tracking 19905 objects as of 17-Oct-2019
HD Live streaming from Space Station
objects crossing your sky now

NOAA 16 DEB

Track NOAA 16 DEB now!
10-day predictions


NORAD ID: 41523
Int'l Code: 2000-055MX
Perigee: 851.3 km
Apogee: 869.5 km
Inclination: 98.9 °
Period: 102.0 minutes
Semi major axis: 7231 km
RCS: Unknown
Launch date: September 21, 2000
Source: United States (US)
Launch site: AIR FORCE WESTERN TEST RANGE (AFWTR)

Note: This is SATELLITE DEBRIS
aabbcc
Your satellite tracking list
Your tracking list is empty




NASA's NSSDC Master Catalog

Two Line Element Set (TLE):
1 41523U 00055MX  19289.46233630 +.00000510 +00000-0 +30351-3 0  9992
2 41523 098.8630 003.5370 0012635 179.2621 180.8571 14.11789304179458
Source of the keplerian elements: AFSPC